| time (UTC) | temp C | wind direction | speed KPH | gust KPH | rain 1hr cm | rain 24hr cm | rain mn cm | humidity % | barometer mb |
| 20260504050537 | 14 | 350 | 0.0 | 0.0 | 5.74 | 5.84 | 0.00 | 49 | 1002.2 |
| 20260504050014 | 14 | 349 | 4.8 | 0.0 | 5.74 | 5.84 | 4.19 | 48 | 1002.3 |
| 20260504045512 | 15 | 349 | 0.0 | 0.0 | 5.74 | 5.84 | 4.19 | 47 | 1002.2 |
| 20260504045009 | 15 | 3 | 0.0 | 0.0 | 4.90 | 5.00 | 4.19 | 46 | 1002.4 |
| 20260504044509 | 127 | 348 | 0.0 | 0.0 | 4.90 | 5.00 | 4.19 | 47 | 1002.5 |
| 20260504044334 | 14 | 348 | 0.0 | 0.0 | 4.06 | 4.17 | 4.19 | 47 | 1002.8 |
| 20260504043525 | 15 | 347 | 0.0 | 0.0 | 4.06 | 4.17 | 4.19 | 46 | 1002.7 |
| 20260504043029 | 1 | 341 | 0.0 | 0.0 | 3.25 | 3.35 | 4.19 | 45 | 1002.5 |
| 20260504042528 | 15 | 306 | 0.0 | 0.0 | 24.36 | 25.37 | 4.19 | 44 | 1002.7 |
| 20260504042028 | 15 | 313 | 0.0 | 0.0 | 8.05 | 9.07 | 4.19 | 45 | 1003.1 |
| 20260504041517 | 15 | 326 | 0.0 | 0.0 | 8.05 | 9.07 | 4.19 | 45 | 1002.9 |
| 20260504041022 | 15 | 344 | 0.0 | 0.0 | 8.05 | 9.07 | 4.19 | 46 | 1002.8 |
| 20260504040509 | 15 | 330 | 0.0 | 0.0 | 0.00 | 1.04 | 4.19 | 45 | 1002.9 |
| 20260504040008 | 15 | 326 | 0.0 | 0.0 | 0.00 | 1.04 | 4.19 | 44 | 1002.8 |
| 20260504035900 | 16 | 349 | 0.0 | 6.4 | 0.00 | 1.04 | 4.19 | 44 | 1003.1 |
| 20260504035646 | -17 | 303 | 0.0 | 0.0 | 0.00 | 1.04 | 4.19 | 1003.0 | |
| 20260504035531 | 15 | 328 | 0.0 | 6.4 | 0.00 | 1.04 | 4.19 | 100 | 1003.1 |
| 20260504035104 | 15 | 342 | 0.0 | 6.4 | 0.00 | 1.04 | 4.19 | 45 | 1003.1 |
| 20260504034520 | 15 | 346 | 0.0 | 6.4 | 0.00 | 1.04 | 4.19 | 45 | 1003.1 |
| 20260504033739 | 16 | 334 | 0.0 | 6.4 | 0.00 | 1.04 | 4.19 | 43 | 1002.9 |
| 20260504033512 | 16 | 333 | 0.0 | 6.4 | 0.00 | 1.04 | 4.19 | 44 | 1003.2 |
| 20260504032508 | 16 | 315 | 0.0 | 6.4 | 0.00 | 1.04 | 4.19 | 43 | 1002.9 |
| 20260504031943 | 16 | 338 | 0.0 | 0.0 | 0.00 | 1.04 | 4.19 | 100 | 1002.8 |
| 20260504031000 | 17 | 18 | 0.0 | 0.0 | 0.00 | 1.04 | 4.19 | 41 | 1003.1 |
| 20260504030505 | 17 | 316 | 0.0 | 6.4 | 0.00 | 1.04 | 4.11 | 41 | 1003.1 |
| 20260504030205 | 17 | 339 | 6.4 | 1.6 | 0.00 | 1.04 | 3.81 | 41 | 1002.9 |
| 20260504030002 | 17 | 314 | 0.0 | 6.4 | 0.00 | 1.04 | 3.99 | 41 | 1003.0 |
| 20260504025847 | 18 | 322 | 1.6 | 6.4 | 0.18 | 1.04 | 3.73 | 39 | 1002.7 |
| 20260504025509 | 17 | 305 | 0.0 | 6.4 | 0.00 | 1.04 | 3.91 | 41 | 1002.9 |
| 20260504025032 | 17 | 334 | 0.0 | 0.0 | 0.00 | 1.04 | 3.91 | 41 | 1002.8 |
| 20260504024036 | 17 | 330 | 0.0 | 6.4 | 0.00 | 1.04 | 3.73 | 40 | 1002.9 |
| 20260504023000 | 17 | 325 | 0.0 | 4.8 | 0.18 | 1.04 | 3.73 | 40 | |
| 20260504022458 | 17 | 291 | 3.2 | 6.4 | 0.33 | 1.04 | 3.73 | 40 | |
| 20260504021958 | 18 | 284 | 0.0 | 6.4 | 0.33 | 1.04 | 3.73 | 38 | 1002.5 |
| 20260504021802 | 18 | 284 | 1.6 | 11.3 | 0.33 | 1.04 | 3.66 | 36 | 1002.2 |
| 20260504021509 | 18 | 276 | 0.0 | 11.3 | 0.33 | 1.04 | 3.73 | 37 | 1002.5 |
| 20260504021045 | 18 | 279 | 1.6 | 11.3 | 0.33 | 1.04 | 3.73 | 37 | 1002.7 |
| 20260504020000 | 18 | 276 | 0.0 | 9.7 | 0.33 | 1.04 | 3.66 | 35 | 1002.2 |
| 20260504015844 | 19 | 287 | 3.2 | 9.7 | 0.33 | 1.04 | 3.58 | 34 | 1002.2 |
| 20260504015459 | 19 | 278 | 4.8 | 12.9 | 0.33 | 1.04 | 3.66 | 35 | 1002.4 |
| 20260504015034 | 19 | 269 | 3.2 | 12.9 | 0.33 | 1.04 | 3.66 | 35 | 1002.1 |
| 20260504014004 | 19 | 327 | 0.0 | 4.8 | 0.33 | 1.04 | 3.58 | 33 | 1002.0 |
| 20260504013459 | 19 | 334 | 0.0 | 0.0 | 0.15 | 0.84 | 3.40 | 34 | 1002.0 |
| 20260504012959 | 19 | 294 | 0.0 | 6.4 | 0.15 | 0.84 | 3.40 | 34 | 1002.2 |
| 20260504012850 | 20 | 306 | 0.0 | 11.3 | 0.00 | 0.71 | 3.10 | 32 | |
| 20260504012508 | 20 | 285 | 0.0 | 11.3 | 0.00 | 0.71 | 3.10 | 33 | |
| 20260504011500 | 20 | 313 | 8.0 | 11.3 | 0.00 | 0.71 | 3.02 | 31 | |
| 20260504010959 | 20 | 342 | 4.8 | 14.5 | 0.00 | 0.71 | 2.87 | 31 | |
| 20260504010505 | 21 | 312 | 6.4 | 14.5 | 0.00 | 0.71 | 2.79 | 30 | |
| 20260504010002 | 21 | 15 | 6.4 | 14.5 | 0.00 | 0.71 | 2.79 | 31 | |
| 20260504005902 | 21 | 331 | 6.4 | 22.5 | 0.00 | 0.71 | 2.72 | 29 | |
| 20260504005515 | 21 | 335 | 1.6 | 22.5 | 0.00 | 0.71 | 2.79 | 30 | |
| 20260504004502 | 21 | 290 | 8.0 | 24.1 | 0.00 | 0.71 | 2.67 | 29 | |
| 20260504004002 | 22 | 304 | 14.5 | 24.1 | 0.00 | 0.71 | 2.64 | 28 | |
| 20260504003458 | 22 | 296 | 3.2 | 24.1 | 0.00 | 0.71 | 2.64 | 29 | |
| 20260504003245 | 22 | 287 | 11.3 | 25.7 | 0.00 | 0.71 | 22.15 | 27 | |
| 20260504002957 | 22 | 292 | 12.9 | 27.4 | 0.00 | 0.71 | 2.64 | 28 | |
| 20260504002520 | 22 | 298 | 9.7 | 27.4 | 0.00 | 0.71 | 25.12 | 28 | |
| 20260504001449 | 22 | 281 | 14.5 | 25.7 | 0.00 | 0.71 | 22.15 | 29 | |
| 20260504000946 | 22 | 279 | 17.7 | 24.1 | 0.00 | 0.71 | 21.51 | 27 | 1001.7 |
| 20260504000453 | 22 | 274 | 12.9 | 25.7 | 0.00 | 0.71 | 21.36 | 28 | 1001.7 |
| 20260503235945 | 22 | 41 | 16.1 | 25.7 | 0.00 | 0.71 | 21.36 | 27 | 1001.8 |
| 20260503235451 | 23 | 317 | 12.9 | 25.7 | 0.00 | 0.71 | 21.36 | 28 | 1001.5 |
| 20260503234953 | 23 | 318 | 1.6 | 25.7 | 0.00 | 0.71 | 21.36 | 28 | 1001.8 |
| 20260503234451 | 23 | 341 | 0.0 | 22.5 | 0.00 | 0.71 | 21.36 | 30 | 1001.6 |
| 20260503233934 | 23 | 327 | 11.3 | 29.0 | 0.00 | 0.71 | 21.36 | 29 | 1001.5 |
| 20260503233456 | 23 | 345 | 20.9 | 29.0 | 0.00 | 0.71 | 21.36 | 28 | 1001.7 |
| 20260503232942 | 23 | 323 | 17.7 | 25.7 | 0.00 | 0.71 | 21.36 | 28 | 1001.4 |
| 20260503232440 | 23 | 326 | 16.1 | 185.1 | 0.00 | 0.71 | 21.36 | 28 | |
| 20260503231926 | 23 | 339 | 12.9 | 185.1 | 0.00 | 0.71 | 21.36 | 29 | 1001.4 |
| 20260503231430 | 23 | 331 | 19.3 | 27.4 | 0.00 | 0.71 | 20.70 | 100 | 1001.4 |
| 20260503230922 | 23 | 320 | 14.5 | 27.4 | 0.00 | 0.71 | 20.70 | 29 | |
| 20260503230423 | 23 | 298 | 9.7 | 25.7 | 0.00 | 0.71 | 20.70 | 28 | |
| 20260503225936 | 23 | 347 | 4.8 | 37.0 | 0.00 | 0.71 | 20.70 | 29 | |
| 20260503225424 | 23 | 327 | 4.8 | 37.0 | 0.00 | 0.71 | 20.70 | 28 | |
| 20260503224921 | 23 | 339 | 4.8 | 33.8 | 0.00 | 0.71 | 20.70 | 30 | |
| 20260503224423 | 23 | 13 | 11.3 | 37.0 | 0.00 | 0.71 | 20.70 | 29 | 1001.7 |
| 20260503223928 | 23 | 333 | 25.7 | 37.0 | 0.00 | 0.71 | 20.70 | 29 | 1001.7 |
| 20260503223421 | 23 | 341 | 11.3 | 35.4 | 0.00 | 0.71 | 20.04 | 29 | |
| 20260503222921 | 23 | 315 | 17.7 | 35.4 | 0.00 | 0.71 | 20.04 | 29 | |
| 20260503222433 | 23 | 311 | 29.0 | 43.5 | 0.00 | 0.71 | 20.04 | 29 | |
| 20260503222332 | 23 | 296 | 19.3 | 35.4 | 0.13 | 0.71 | 17.60 | 28 | |
| 20260503221931 | 23 | 13 | 14.5 | 43.5 | 0.00 | 0.71 | 20.04 | 29 | |
| 20260503221421 | 23 | 270 | 17.7 | 40.2 | 0.00 | 0.71 | 19.41 | 31 | |
| 20260503221233 | 23 | 269 | 22.5 | 40.2 | 0.13 | 0.71 | 17.60 | 29 | |
| 20260503220944 | 23 | 289 | 9.7 | 33.8 | 0.13 | 0.71 | 18.29 | 29 | |
| 20260503220414 | 23 | 312 | 27.4 | 40.2 | 0.13 | 0.71 | 18.29 | 29 | |
| 20260503214851 | 23 | 290 | 24.1 | 46.7 | 0.25 | 0.71 | 16.89 | 29 | |
| 20260503214410 | 23 | 293 | 20.9 | 46.7 | 0.25 | 0.71 | 16.89 | 29 | |
| 20260503213840 | 23 | 294 | 22.5 | 35.4 | 0.25 | 0.71 | 15.14 | 29 | |
| 20260503213706 | 23 | 343 | 14.5 | 37.0 | 0.41 | 0.71 | 13.74 | 30 | |
| 20260503213348 | 23 | 275 | 20.9 | 35.4 | 0.25 | 0.71 | 13.74 | 29 | |
| 20260503212402 | 23 | 311 | 17.7 | 37.0 | 0.41 | 0.71 | 13.74 | 30 | |
| 20260503211837 | 23 | 307 | 14.5 | 41.8 | 0.41 | 0.71 | 13.74 | 29 | |
| 20260503211333 | 23 | 313 | 29.0 | 41.8 | 0.41 | 0.71 | 13.74 | 29 | |
| 20260503210830 | 23 | 273 | 25.7 | 40.2 | 0.41 | 0.56 | 13.11 | 29 | |
| 20260503210331 | 23 | 302 | 20.9 | 40.2 | 0.41 | 0.56 | 11.20 | 29 | |
| 20260503205842 | 23 | 286 | 24.1 | 38.6 | 0.56 | 0.56 | 11.20 | 27 | |
| 20260503205310 | 23 | 246 | 22.5 | 41.8 | 0.56 | 0.56 | 11.20 | 29 | |
| 20260503204956 | 23 | 313 | 25.7 | 35.4 | 0.30 | 0.30 | 5.54 | 31 | |
| 20260503204831 | 23 | 266 | 4.8 | 41.8 | 0.43 | 0.43 | 8.61 | 30 | |
| 20260503204736 | 23 | 309 | 4.8 | 41.8 | 0.43 | 0.43 | 8.61 | 29 | |
| 20260503204638 | 23 | 296 | 20.9 | 41.8 | 0.30 | 0.30 | 7.90 | 29 | |
| 20260503204357 | 23 | 12 | 20.9 | 35.4 | 0.43 | 0.43 | 8.61 | 29 | |
| 20260503202839 | 23 | 287 | 25.7 | 35.4 | 0.30 | 0.30 | 6.50 | 29 | |
| 20260503202306 | 23 | 271 | 20.9 | 35.4 | 0.30 | 0.30 | 6.50 | 33 | |
| 20260503201234 | 23 | 245 | 20.9 | 33.8 | 0.30 | 0.30 | 4.29 | 33 | |
| 20260503200747 | 23 | 286 | 16.1 | 30.6 | 0.15 | 0.15 | 3.99 | 33 | |
| 20260503200233 | 23 | 327 | 20.9 | 38.6 | 0.15 | 0.15 | 3.53 | 33 | |
| 20260503195748 | 23 | 331 | 22.5 | 38.6 | 0.00 | 0.00 | 2.39 | 33 | |
| 20260503140247 | 11 | 152 | 9.7 | 22.5 | 0.00 | 20.24 | 1.96 | 59 | 1006.3 |
| 20260503131120 | 11 | 164 | 9.7 | 20.9 | 0.00 | 20.24 | 1.96 | 58 | 1006.7 |
| 20260503110535 | 11 | 166 | 1.6 | 11.3 | 0.00 | 4.34 | 1.96 | 57 | 1007.7 |
| 20260503090329 | 10 | 0.0 | 0.0 | 0.00 | 4.34 | 1.96 | 58 | 1009.6 | |
| 20260503090139 | 1 | 17 | 0.0 | 0.0 | 0.00 | 5.23 | 0.00 | 91 | 1015.8 |
| 20260503081300 | 10 | 0.0 | 0.0 | 0.00 | 4.34 | 1.96 | 57 | 1010.1 | |
| 20260503080851 | 10 | 0.0 | 0.0 | 0.00 | 4.34 | 1.96 | 100 | 1010.0 | |
| 20260503072811 | 10 | 192 | 0.0 | 4.8 | 0.00 | 4.34 | 1.96 | 57 | 1009.7 |
| 20260503072300 | 10 | 246 | 0.0 | 4.8 | 0.15 | 4.34 | 1.80 | 100 | 1009.5 |
| 20260503071758 | 10 | 221 | 0.0 | 0.0 | 0.15 | 4.34 | 1.24 | 100 | 1009.9 |
| 20260503071639 | 10 | 0.0 | 0.0 | 0.15 | 4.34 | 1.24 | 100 | 1009.9 | |
| 20260503071547 | 10 | 153 | 0.0 | 0.0 | 0.15 | 4.34 | 1.24 | 100 | 1009.8 |
| 20260503071306 | 10 | 0.0 | 0.0 | 0.15 | 4.34 | 1.24 | 100 | 1009.7 | |
| 20260503070846 | 10 | 0.0 | 0.0 | 0.15 | 4.34 | 1.24 | 100 | 1009.6 |